Wind_Speed
18 18 17 19 20 19 21 24 24 23 22 22 23 23 25 25 26 28 28 30 33 34 35 36 37 40 43 45 44 45 49 48 51 54 54 51 43 41 42 43 40 35 33 30 31
16 18 18 19 20 21 21 22 25 26 26 24 24 25 25 27 29 29 29 31 33 36 36 37 39 42 45 47 49 51 52 53 57 58 62 61 54 47 46 47 44 38 36 33 33
15 17 18 19 19 20 21 23 24 26 28 27 26 26 27 28 29 30 31 33 35 35 37 38 40 44 47 52 54 57 55 63 65 68 69 68 63 53 50 52 48 42 41 37 32
17 17 19 20 21 21 22 23 25 26 28 31 28 27 29 29 31 31 33 35 36 36 38 40 42 46 50 54 58 61 68 74 77 78 80 79 76 60 55 53 55 50 45 40 40
20 20 20 21 21 22 24 25 25 27 28 30 32 30 30 30 31 33 34 36 37 37 38 41 44 48 52 56 62 65 60 54 51 49 54 68 76 71 55 60 59 54 44 44 42
23 23 23 23 23 24 24 25 27 27 28 30 31 33 31 32 32 34 36 36 36 38 39 41 45 48 57 42 36 41 42 41 43 49 52 53 55 62 60 61 62 57 45 47 42
27 26 26 26 25 26 25 26 27 28 29 31 30 32 32 32 32 35 37 37 35 38 39 42 45 47 41 27 23 41 37 34 36 35 41 45 48 55 58 67 65 59 48 51 45
27 27 29 28 28 27 28 29 29 30 30 30 31 32 32 33 34 35 37 37 37 37 39 43 43 44 39 28 33 40 50 51 27 32 26 40 34 42 58 71 66 59 49 50 38
29 30 29 30 29 29 30 30 32 31 33 32 33 32 32 32 34 35 37 36 36 37 39 42 43 42 39 34 38 42 47 42 25 29 26 35 19 32 56 61 58 57 51 48 42
28 28 31 31 32 32 32 32 32 32 33 34 32 33 32 32 33 35 36 35 35 37 39 40 41 39 34 33 36 43 45 33 23 21 25 29 22 32 41 49 59 56 51 51 50
31 30 31 33 35 36 36 35 34 33 33 33 34 33 34 33 32 34 34 35 35 36 38 38 39 37 32 30 33 38 45 28 22 18 25 31 26 41 23 35 56 53 51 49 41
33 31 32 35 37 38 37 37 37 34 33 33 33 33 34 32 32 32 34 34 34 35 36 37 36 36 31 27 30 38 43 26 19 7 13 26 32 29 10 39 57 51 52 51 49
35 34 36 37 38 37 37 38 38 36 35 32 32 32 32 31 30 32 32 33 34 34 35 36 35 37 31 25 26 30 39 19 14 14 9 29 31 10 13 41 51 50 49 47 38
34 36 37 38 39 39 39 39 37 35 37 34 32 30 28 30 31 30 31 32 32 33 34 34 33 34 32 20 22 24 32 11 16 7 8 24 5 9 18 42 50 46 43 43 40
39 39 37 39 40 40 40 39 36 34 36 34 31 31 30 30 31 30 30 32 31 31 32 32 31 32 31 22 15 18 21 9 4 8 11 18 3 23 24 41 48 47 41 42 43
39 39 39 41 41 41 38 35 34 34 36 35 34 32 32 29 31 30 29 28 29 29 30 30 30 30 28 24 11 12 16 10 8 12 11 13 8 11 18 30 42 32 42 31 49
38 39 39 40 38 37 34 32 33 34 35 34 32 33 32 31 31 30 29 27 27 27 27 27 27 27 26 23 17 7 9 10 7 4 7 15 9 6 16 25 31 36 42 38 11
38 39 39 38 36 33 31 30 32 33 32 32 32 32 32 30 31 30 29 27 26 26 25 23 24 26 24 21 20 10 3 3 1 4 4 6 9 10 11 14 18 37 29 38 32
39 36 36 34 33 31 27 28 30 29 30 31 31 32 30 30 31 30 29 27 25 25 24 22 21 24 24 20 18 15 5 3 6 7 3 2 3 6 8 11 16 24 31 27 27
37 35 33 32 32 33 29 30 32 33 34 33 32 33 29 30 31 30 29 27 25 24 23 22 19 21 21 19 17 13 11 3 5 6 6 11 8 7 7 6 9 14 15 17 18
34 34 33 34 34 31 31 31 32 33 31 30 29 30 28 29 29 30 28 27 26 23 21 20 18 19 19 20 16 12 9 6 6 8 9 10 12 9 10 10 10 13 14 14 16
35 35 35 33 31 27 29 31 30 29 28 27 27 27 28 28 27 27 26 27 27 23 21 20 17 18 18 19 17 13 12 8 7 9 13 10 10 10 10 11 11 12 13 16 16
37 35 33 31 28 27 29 30 28 26 29 31 33 30 29 27 26 23 25 26 27 24 20 19 18 18 17 17 17 16 13 14 9 7 11 15 14 13 14 14 15 14 15 17 17
37 36 33 31 30 30 30 28 28 30 30 30 30 30 29 26 23 22 23 24 26 27 22 19 19 19 17 15 17 20 18 14 12 8 8 12 16 17 17 17 19 21 21 21 21
41 37 36 30 32 34 35 30 28 29 26 28 27 27 27 21 20 20 21 23 25 25 23 21 22 20 19 17 17 18 19 21 18 12 10 10 13 14 16 18 20 24 26 27 28
45 45 38 35 33 33 33 28 31 30 32 29 26 28 23 22 21 21 20 22 24 25 26 23 23 22 21 20 21 19 18 21 21 20 15 16 15 16 17 18 18 19 20 23 26
47 51 44 40 38 36 33 37 33 36 34 26 25 26 25 25 23 22 23 24 23 25 27 24 23 25 23 22 22 19 21 22 22 21 23 20 19 19 20 21 23 23 23 23 23
Wind_Direction
308 306 307 307 306 305 309 306 304 301 299 297 296 292 292 296 297 296 299 299 297 294 292 288 285 285 286 286 282 278 276 276 269 267 266 262 259 253 251 252 249 242 241 242 239
307 304 304 304 303 304 305 308 306 303 301 300 298 296 294 295 298 297 294 295 297 296 293 290 289 289 291 288 284 281 276 274 270 264 261 259 254 246 247 249 251 243 240 237 239
311 304 301 300 298 301 305 308 305 304 303 299 297 299 297 295 297 299 298 298 299 296 295 295 293 293 293 292 290 284 277 272 272 266 260 258 256 248 241 248 247 238 233 234 237
303 307 307 305 301 301 304 307 307 304 303 300 299 301 300 299 302 302 302 302 301 298 299 298 298 298 298 298 294 290 281 270 263 264 262 256 252 245 239 240 238 236 232 229 227
295 299 305 305 306 301 301 306 305 306 303 301 300 301 301 302 303 302 304 305 303 301 302 302 304 304 306 306 302 294 291 282 274 264 274 259 252 248 228 231 233 235 231 228 226
293 296 299 305 308 306 304 305 307 305 302 301 299 301 302 303 303 304 306 308 306 305 307 306 310 310 313 307 317 314 308 287 274 280 277 260 247 240 218 219 224 228 223 228 229
289 295 297 298 304 305 304 305 307 304 303 302 303 301 301 304 306 307 309 310 308 309 310 313 316 316 319 306 312 328 335 306 285 284 275 245 236 231 214 206 216 220 216 224 223
284 288 291 293 296 303 304 305 305 304 303 301 302 302 301 304 306 308 309 311 310 314 315 318 322 324 312 297 301 325 326 332 282 272 266 235 238 232 206 202 205 213 211 221 221
283 288 291 292 292 295 302 303 306 304 304 306 304 304 304 304 306 308 311 312 313 316 318 320 327 328 312 294 301 319 327 335 301 267 246 228 235 225 209 207 197 205 207 215 207
285 288 290 292 293 296 297 299 301 303 302 303 304 305 305 305 306 310 312 313 315 317 319 326 331 333 313 308 309 332 343 341 304 266 236 219 225 208 196 212 191 200 205 213 214
282 286 287 292 294 294 294 297 298 301 300 300 303 303 303 306 309 310 311 313 315 319 321 329 334 338 322 315 332 347 347 333 302 278 232 208 213 185 189 208 188 197 206 215 213
280 287 291 293 295 294 291 294 298 299 298 299 299 301 303 304 309 309 311 312 314 318 323 329 339 342 334 324 333 354 351 350 347 243 203 196 198 179 146 193 191 197 208 216 206
283 287 289 292 293 292 290 293 296 297 295 297 300 301 300 303 307 308 309 311 315 320 324 331 340 343 341 329 347 358 1 8 33 65 107 184 188 168 163 189 192 200 212 212 210
281 285 288 291 290 289 288 291 293 294 293 296 299 298 297 301 303 304 308 311 316 321 325 331 341 345 347 333 352 3 12 33 16 3 130 183 126 157 163 186 195 204 215 230 220
276 283 284 285 285 286 289 291 292 290 290 297 298 297 297 299 300 303 307 310 315 321 325 331 339 345 349 348 342 19 19 23 343 273 199 188 35 204 188 194 197 208 217 213 218
277 281 283 284 286 287 288 287 286 287 290 291 294 294 295 296 298 301 305 308 314 319 324 330 337 343 348 355 351 25 38 14 316 242 267 266 310 157 185 200 204 231 214 210 231
276 278 281 282 284 284 285 283 284 286 290 290 291 291 293 294 295 299 304 306 312 316 321 328 334 341 344 351 359 19 58 48 343 325 302 272 302 284 199 214 209 227 244 236 302
274 276 278 280 280 279 281 283 284 287 285 287 286 289 289 293 294 297 301 302 307 310 317 328 334 336 339 345 353 358 60 110 200 36 120 219 260 270 258 245 231 232 240 235 287
275 276 275 276 277 276 279 280 282 283 283 285 288 289 290 291 292 292 296 299 301 307 315 321 329 330 332 339 351 348 347 142 192 228 270 188 202 199 220 235 234 241 249 268 260
275 274 273 274 274 275 277 279 279 278 281 284 285 286 289 291 291 290 293 298 297 302 310 316 326 326 328 328 337 349 337 293 215 219 215 254 257 237 231 221 233 234 238 257 259
272 273 273 274 273 274 278 274 274 277 281 289 291 291 288 287 288 287 290 293 293 297 304 309 320 319 321 318 321 333 335 315 255 236 221 215 243 251 253 252 253 261 267 254 278
269 272 274 272 272 271 272 272 274 276 280 286 287 290 289 287 289 288 286 286 289 291 297 304 313 314 314 309 308 311 320 314 277 260 259 244 236 242 241 248 253 258 266 268 274
274 270 268 271 266 265 263 264 266 274 280 285 287 285 287 286 284 284 284 288 288 287 293 300 304 306 307 301 297 299 304 308 299 275 258 261 257 246 244 244 244 243 246 251 257
269 266 266 266 262 261 253 261 266 274 278 287 292 283 284 285 288 289 287 286 288 291 291 294 295 296 298 291 286 290 293 289 287 283 267 258 254 255 248 235 239 245 249 254 258
267 260 261 261 259 259 257 261 266 268 273 295 295 284 285 288 290 291 288 283 283 288 289 288 290 291 292 286 277 277 285 289 279 275 265 260 263 257 258 257 246 243 248 255 260
263 261 258 251 251 256 256 259 260 272 282 287 288 292 289 293 293 293 292 288 284 287 283 284 285 288 285 281 274 270 272 274 274 271 261 257 257 264 267 265 262 260 255 257 264
256 255 252 251 253 258 251 251 266 285 277 281 285 290 287 283 281 286 286 282 282 280 277 276 279 281 282 277 278 281 272 269 267 264 266 259 254 257 261 265 269 272 272 269 267
Height
5813 5812 5810 5809 5808 5806 5805 5804 5802 5800 5799 5797 5796 5794 5792 5791 5789 5787 5786 5785 5782 5780 5779 5778 5777 5775 5774 5772 5771 5768 5768 5771 5770 5769 5767 5771 5777 5780 5778 5780 5785 5792 5795 5799 5801
5810 5809 5807 5806 5804 5803 5801 5800 5798 5797 5795 5794 5792 5790 5788 5786 5784 5782 5779 5777 5775 5773 5771 5769 5768 5766 5764 5761 5759 5757 5757 5756 5751 5752 5750 5754 5762 5766 5771 5770 5778 5785 5788 5792 5794
5806 5805 5804 5802 5800 5799 5798 5796 5794 5792 5791 5789 5786 5785 5783 5781 5780 5778 5775 5773 5769 5766 5764 5761 5758 5756 5753 5749 5746 5744 5743 5734 5736 5732 5733 5736 5743 5753 5759 5762 5768 5774 5779 5785 5790
5803 5801 5800 5799 5797 5796 5794 5792 5790 5788 5787 5785 5783 5781 5779 5777 5776 5772 5770 5766 5762 5759 5756 5753 5750 5745 5741 5735 5730 5728 5723 5714 5715 5711 5708 5713 5721 5733 5744 5756 5752 5760 5770 5777 5780
5799 5798 5796 5794 5793 5792 5790 5789 5786 5784 5781 5779 5778 5776 5773 5772 5769 5766 5763 5760 5756 5752 5749 5745 5741 5736 5729 5723 5715 5705 5697 5689 5687 5688 5689 5689 5697 5708 5729 5736 5741 5751 5764 5770 5773
5796 5794 5793 5791 5788 5787 5786 5784 5782 5779 5776 5774 5772 5771 5768 5766 5762 5759 5756 5753 5748 5745 5741 5736 5731 5725 5717 5707 5701 5693 5683 5677 5674 5671 5668 5668 5676 5682 5708 5722 5728 5741 5754 5761 5766
5791 5791 5789 5787 5784 5782 5780 5778 5777 5774 5772 5769 5767 5765 5762 5759 5755 5752 5749 5745 5741 5737 5734 5728 5721 5714 5707 5698 5692 5684 5676 5666 5662 5657 5654 5652 5656 5667 5688 5703 5716 5730 5744 5752 5757
5784 5784 5783 5781 5780 5778 5776 5773 5771 5769 5766 5764 5761 5759 5757 5754 5749 5746 5741 5738 5735 5730 5725 5720 5713 5705 5697 5690 5682 5676 5667 5659 5650 5641 5642 5641 5653 5663 5674 5690 5703 5720 5735 5745 5753
5778 5778 5777 5775 5773 5771 5770 5768 5767 5764 5762 5760 5758 5754 5752 5748 5744 5739 5735 5732 5728 5723 5717 5712 5706 5697 5687 5681 5675 5667 5657 5645 5639 5633 5633 5638 5652 5654 5664 5680 5696 5711 5725 5735 5744
5771 5771 5771 5770 5768 5766 5763 5761 5759 5758 5756 5753 5751 5750 5746 5742 5739 5735 5730 5725 5721 5716 5710 5705 5698 5689 5681 5674 5668 5661 5649 5637 5631 5628 5627 5637 5644 5648 5664 5676 5690 5705 5718 5727 5731
5765 5764 5764 5763 5763 5760 5759 5756 5754 5752 5749 5747 5745 5742 5739 5737 5733 5730 5724 5720 5715 5711 5705 5699 5693 5685 5677 5670 5664 5657 5644 5633 5626 5622 5624 5633 5639 5649 5660 5671 5686 5700 5712 5721 5727
5757 5757 5757 5756 5755 5753 5751 5749 5748 5745 5742 5741 5739 5737 5735 5731 5728 5724 5720 5716 5711 5706 5700 5695 5689 5682 5674 5668 5662 5654 5645 5635 5626 5619 5625 5633 5640 5645 5651 5668 5685 5698 5708 5714 5722
5750 5750 5749 5748 5746 5745 5743 5743 5740 5738 5735 5735 5733 5731 5728 5726 5721 5718 5715 5710 5706 5702 5696 5690 5686 5680 5671 5666 5662 5656 5647 5641 5636 5633 5635 5639 5645 5646 5654 5672 5685 5696 5705 5710 5715
5741 5741 5740 5740 5740 5737 5736 5734 5732 5731 5729 5729 5727 5724 5722 5719 5716 5711 5708 5707 5702 5697 5692 5688 5682 5678 5672 5665 5662 5658 5654 5649 5647 5645 5646 5648 5653 5657 5662 5672 5682 5693 5703 5706 5714
5732 5732 5731 5730 5730 5729 5729 5728 5726 5724 5722 5722 5719 5717 5715 5713 5710 5706 5702 5699 5696 5693 5690 5685 5679 5675 5671 5665 5662 5660 5658 5656 5652 5653 5653 5653 5656 5662 5666 5671 5682 5692 5701 5698 5708
5723 5724 5722 5722 5721 5721 5720 5719 5719 5718 5714 5715 5713 5711 5710 5707 5705 5702 5697 5694 5692 5689 5686 5682 5677 5674 5671 5666 5662 5661 5659 5658 5657 5655 5656 5656 5659 5659 5668 5674 5680 5685 5690 5695 5703
5713 5713 5713 5713 5713 5712 5712 5713 5712 5710 5709 5707 5706 5704 5703 5700 5698 5696 5693 5691 5688 5686 5682 5678 5674 5673 5670 5666 5662 5662 5659 5658 5659 5657 5658 5658 5660 5661 5667 5672 5677 5682 5685 5687 5690
5703 5703 5704 5705 5704 5704 5704 5706 5704 5702 5701 5700 5698 5698 5696 5695 5694 5691 5689 5687 5683 5681 5678 5675 5672 5670 5668 5666 5661 5660 5660 5659 5659 5659 5660 5662 5663 5664 5668 5671 5673 5678 5681 5684 5688
5695 5694 5695 5697 5697 5697 5697 5699 5696 5696 5694 5692 5691 5691 5690 5689 5689 5685 5683 5682 5679 5678 5677 5673 5669 5667 5667 5664 5662 5658 5659 5660 5658 5660 5660 5663 5665 5667 5668 5669 5672 5677 5680 5682 5683
5686 5687 5687 5688 5689 5691 5691 5691 5689 5689 5688 5687 5685 5684 5683 5682 5682 5680 5679 5677 5676 5675 5673 5670 5667 5665 5665 5663 5661 5658 5658 5658 5658 5659 5659 5661 5664 5666 5668 5668 5670 5673 5676 5678 5679
5678 5678 5679 5679 5682 5682 5684 5682 5681 5682 5681 5681 5680 5678 5677 5675 5675 5674 5674 5674 5672 5671 5669 5666 5664 5664 5662 5661 5659 5657 5656 5654 5655 5657 5657 5658 5662 5664 5665 5667 5670 5672 5673 5673 5676
5667 5668 5671 5671 5676 5675 5676 5674 5675 5676 5675 5674 5673 5671 5671 5670 5669 5668 5668 5668 5667 5667 5666 5663 5661 5659 5660 5659 5657 5655 5654 5653 5651 5654 5655 5656 5659 5659 5661 5664 5666 5668 5669 5671 5672
5658 5660 5661 5665 5666 5667 5667 5667 5668 5669 5669 5669 5667 5665 5664 5663 5662 5661 5662 5663 5663 5662 5661 5660 5657 5656 5656 5657 5654 5652 5652 5652 5651 5650 5652 5653 5655 5656 5658 5660 5661 5663 5665 5668 5669
5649 5651 5655 5657 5659 5659 5659 5661 5663 5663 5662 5662 5660 5658 5659 5658 5656 5656 5656 5657 5658 5659 5657 5656 5654 5652 5652 5651 5650 5648 5647 5648 5649 5648 5648 5650 5651 5652 5654 5657 5658 5659 5661 5662 5663
5638 5643 5647 5649 5650 5649 5651 5654 5656 5656 5656 5655 5653 5652 5654 5651 5650 5651 5650 5651 5652 5652 5652 5652 5651 5649 5647 5647 5645 5644 5644 5644 5645 5646 5645 5646 5646 5648 5650 5652 5654 5655 5657 5658 5659
5627 5630 5635 5638 5639 5642 5644 5648 5646 5648 5650 5648 5648 5648 5649 5647 5647 5646 5645 5645 5647 5646 5646 5646 5646 5644 5643 5641 5640 5639 5639 5639 5640 5641 5642 5641 5642 5644 5645 5647 5649 5650 5652 5653 5653
5617 5620 5621 5627 5629 5633 5637 5636 5638 5641 5641 5641 5641 5642 5641 5641 5640 5640 5640 5638 5638 5639 5639 5639 5639 5639 5639 5635 5635 5638 5634 5634 5635 5635 5637 5638 5639 5639 5641 5642 5642 5644 5646 5647 5648